Voltar ao catálogo

STARLINK-5769

AtivoComunicaçõesVLEO
NORAD 55585·PAYLOAD·🇺🇸 United States

Lançado Feb 12, 2023 de Cape Canaveral Space Force Station

Loading…

Próximas Passagens (próximas 24 horas)

TLE

AtualizadoSource: CelesTrak SupGP

Época: Sep 15, 2026, 01:51 UTC

1 55585C 23020S   26258.07756944 -.00030812  00000+0 -11160-2 0  2584
2 55585  43.0039   4.9853 0002432 274.0287 321.2254 15.27593413    19

Acompanhe STARLINK-5769 em tempo real com AllMySat

Download on the App Store